Warning: Javascript must be enabled to use all the features on this page!


Page Loading - Please Wait...

* We've detected you're using a mobile device. Find our mobile dedicated web site here.
Click to hideNews Bulletins

Streamflow Measurements for the Nation


USGS 11447650 SACRAMENTO R A FREEPORT CA


Sacramento County, California
Hydrologic Unit Code 18020163
Latitude  38°27'22", Longitude 121°30'01" NAD27
Output formats
HTML table with channel data
HTML table without channel data
Tab-separated data with channel data
Tab-separated data without channel data
Graph of data
Reselect output format
Meas.
Number
  Date       Time Time
Datum
Measurement
Used?
  Who Measuring
Agency
Stream
flow
(ft3/s)
Gage
Height
(ft)
GH
Change
(ft)
Meas.
Duration
(hr)
Meas.
Rated
  Control Flow
Adjust.
Code
 
12812019-08-12 12:45:41PDTYesTV/TDUSGS23100104.07 Unspecified NONE
12802019-08-12 12:37:45PDTYesTV/TDUSGS23200104.09 Unspecified NONE
12792019-08-12 12:28:31PDTYesTV/TDUSGS23200104.13 Unspecified NONE
12782019-08-12 12:20:12PDTYesTV/TDUSGS23600104.15 Unspecified NONE
12772019-08-12 12:13:45PDTYesTV/TDUSGS23100104.17 Unspecified NONE
12762019-08-12 12:07:30PDTYesTV/TDUSGS23800104.20 Unspecified NONE
12752019-06-07 12:48:58PDTYesTV/TDUSGS45600110.60 Unspecified NONE
12742019-06-07 12:42:21PDTYesTV/TDUSGS46900110.61 Unspecified NONE
12732019-06-07 12:36:17PDTYesTV/TDUSGS46700110.61 Unspecified NONE
12722019-06-07 12:29:53PDTYesTV/TDUSGS46500110.62 Unspecified NONE
12712019-06-07 12:23:12PDTYesTV/TDUSGS46500110.63 Unspecified NONE
12702019-06-07 12:16:26PDTYesTV/TDUSGS46500110.63 Unspecified NONE
12692019-04-11 12:42:55PDTYesTV/TDUSGS69300115.79 Unspecified NONE
12682019-04-11 12:36:37PDTYesTV/TDUSGS67700115.79 Unspecified NONE
12672019-04-11 12:30:09PDTYesTV/TDUSGS68800115.78 Unspecified NONE
12662019-04-11 12:23:47PDTYesTV/TDUSGS70000115.79 Unspecified NONE
12652019-04-11 12:18:04PDTYesTV/TDUSGS68100115.79 Unspecified NONE
12642019-04-11 12:13:03PDTYesTV/TDUSGS68100115.80 Unspecified NONE
12632019-02-15 16:20:36PSTYesTV/MIUSGS77600117.56 Unspecified NONE
12622019-02-15 16:14:38PSTYesTV/MIUSGS78400117.54 Unspecified NONE
12612019-02-15 16:08:41PSTYesTV/MIUSGS74900117.53 Unspecified NONE
12602019-02-15 16:02:49PSTYesTV/MIUSGS78100117.52 Unspecified NONE
12592019-02-15 15:57:17PSTYesTV/MIUSGS77700117.52 Unspecified NONE
12582019-02-15 15:52:14PSTYesTV/MIUSGS77200117.53 Unspecified NONE
12572019-02-08 13:39:50PSTYesTV/HRUSGS54200111.80 Unspecified NONE
12562019-02-08 13:32:16PSTYesTV/HRUSGS53300111.80 Unspecified NONE
12552019-02-08 13:24:48PSTYesTV/HRUSGS53400111.81 Unspecified NONE
12542019-02-08 13:17:02PSTYesTV/HRUSGS53200111.82 Unspecified NONE
12532019-02-08 13:08:46PSTYesTV/HRUSGS53700111.82 Unspecified NONE
12522019-02-08 12:59:38PSTYesTV/HRUSGS52400111.84 Unspecified NONE
12512018-10-31 11:21:20PDTYesTV/JHUSGS4850102.55 Unspecified NONE
12502018-10-31 11:16:09PDTYesTV/JHUSGS4900102.52 Unspecified NONE
12492018-10-31 11:11:15PDTYesTV/JHUSGS5090102.49 Unspecified NONE
12482018-10-31 11:06:16PDTYesTV/JHUSGS5280102.46 Unspecified NONE
12472018-10-31 11:01:10PDTYesTV/JHUSGS5470102.43 Unspecified NONE
12462018-10-31 10:56:01PDTYesTV/JHUSGS5530102.39 Unspecified NONE
12452018-08-23 12:35:17PDTYesTV/HRUSGS21700103.55 Unspecified NONE
12442018-08-23 12:26:58PDTYesTV/HRUSGS21000103.58 Unspecified NONE
12432018-08-23 12:18:35PDTYesTV/HRUSGS21500103.61 Unspecified NONE
12422018-08-23 12:09:51PDTYesTV/HRUSGS21000103.64 Unspecified NONE
12412018-08-23 12:01:25PDTYesTV/HRUSGS21500103.68 Unspecified NONE
12402018-08-23 11:52:50PDTYesTV/HRUSGS21100103.71 Unspecified NONE
12392018-07-03 13:18:20PDTYesTV/MI/MSUSGS16000103.89 Unspecified NONE
12382018-07-03 13:13:25PDTYesTV/MI/MSUSGS15900103.90 Unspecified NONE
12372018-07-03 13:08PDTYesTV/MI/MSUSGS16100103.93 Unspecified NONE
12362018-07-03 13:02:24PDTYesTV/MI/MSUSGS15600103.96 Unspecified NONE
12352018-07-03 12:55:46PDTYesTV/MI/MSUSGS15900103.99 Unspecified NONE
12342018-07-03 12:50:30PDTYesTV/MI/MSUSGS15500104.02 Unspecified NONE
12332018-04-02 13:03:06PDTYesTV,CCUSGS28500106.00 Unspecified NONE
12322018-04-02 12:55:48PDTYesTV,CCUSGS28600106.02 Unspecified NONE
12312018-04-02 12:49:07PDTYesTV,CCUSGS29300106.03 Unspecified NONE
12302018-04-02 12:42:11PDTYesTV,CCUSGS29100106.05 Unspecified NONE
12292018-04-02 12:35:54PDTYesTV,CCUSGS28500106.06 Unspecified NONE
12282018-04-02 12:30:14PDTYesTV,CCUSGS28100106.08 Unspecified NONE
12272018-03-23 10:38:32PDTYesSJB/SPHUSGS53800111.560.120.75FairClearNONE
12262018-02-08 11:10:05PSTYesSJB/EMLUSGS10100 0.180.50FairClearNONE
12252017-12-13 11:36:03PSTYesSJB/EMLUSGS10600 GoodClearNONE
12242017-12-13 11:31:59PSTYesSJB/EMLUSGS10500 GoodClearNONE
12232017-12-13 11:25:43PSTYesSJB/EMLUSGS11500 GoodClearNONE
12222017-12-13 11:20:51PSTYesSJB/EMLUSGS11300 GoodClearNONE
12212017-12-01 13:11:38PSTYesTV/JDUSGS11300 Good NONE
12202017-12-01 13:05:45PSTYesTV/JDUSGS11400 Good NONE
12192017-12-01 13:00:25PSTYesTV/JDUSGS11500 Good NONE
12182017-12-01 12:54:52PSTYesTV/JDUSGS11700 Good NONE
12172017-12-01 12:48:44PSTYesTV/JDUSGS11800 Good NONE
12162017-12-01 12:42:39PSTYesTV/JDUSGS12400 Good NONE
12152017-09-12 12:51:06PDTYesSJB/EMLUSGS19300 GoodClearNONE
12142017-09-12 12:46:30PDTYesSJB/EMLUSGS20300 GoodClearNONE
12132017-09-12 12:42:08PDTYesSJB/EMLUSGS19500 GoodClearNONE
12122017-09-12 12:34:59PDTYesSJB/EMLUSGS20500 GoodClearNONE
12112017-07-17 11:47:12PDTYesSJB/EMLUSGS15400 GoodClearNONE
12102017-07-17 11:42:11PDTYesSJB/EMLUSGS16000 GoodClearNONE
12082017-07-17 11:39:24PDTYesSJB/EMLUSGS16000103.300.010.25GoodClearNONE
12092017-07-17 11:37:04PDTYesSJB/EMLUSGS16200 GoodClearNONE
12072017-05-24 12:35:05PDTYesSJB/EMLUSGS41100 GoodClearNONE
12062017-05-24 12:30:50PDTYesSJB/EMLUSGS39900 GoodClearNONE
12052017-05-24 12:26:27PDTYesSJB/EMLUSGS42100 GoodClearNONE
12042017-05-24 12:22PDTYesSJB/EMLUSGS40100 GoodClearNONE
12032017-05-16 10:54:57PDTYesJBUSGS56300 Good NONE
12022017-05-16 10:43:35PDTYesJBUSGS54200 Good NONE
12012017-05-16 10:32:15PDTYesJBUSGS57100 Good NONE
12002017-05-16 10:22:05PDTYesJBUSGS53800 Good NONE
11992017-05-16 10:14:19PDTYesJBUSGS56200 Good NONE
11982017-05-16 10:08:48PDTYesJBUSGS54400 Good NONE
11972017-05-03 13:08:24PDTYesTM,JS,MUSGS69800 Good NONE
11962017-05-03 13:03:56PDTYesTM,JS,MUSGS68600 Good NONE
11952017-05-03 12:59:41PDTYesTM,JS,MUSGS70800 Good NONE
11942017-05-03 12:55:37PDTYesTM,JS,MUSGS68700 Good NONE
11932017-05-03 12:51:17PDTYesTM,JS,MUSGS71300 Good NONE
11922017-05-03 12:46:52PDTYesTM,JS,MUSGS69100 Good NONE
11912017-04-10 14:15:03PDTYesJB, NSUSGS75200 Good NONE
11902017-04-10 14:07:32PDTYesJB, NSUSGS71800 Good NONE
11892017-04-10 13:57:57PDTYesJB, NSUSGS73800 Good NONE
11882017-04-10 13:48PDTYesJB, NSUSGS75500 Good NONE
11872017-04-10 13:34:30PDTYesJB, NSUSGS72900 Good NONE
11862017-04-10 13:21:52PDTYesJB, NSUSGS76800 Good NONE
11852017-03-10 12:26:25PSTYesSJB/EMLUSGS64100114.63-0.010.50FairClearNONE
11842017-01-25 11:45:14PSTYesJB, NDUSGS71800 Good NONE
11832017-01-25 11:37:15PSTYesJB, NDUSGS71900 Good NONE
11822017-01-25 11:28:06PSTYesJB, NDUSGS72200 Good NONE
11812017-01-25 11:20:20PSTYesJB, NDUSGS72400 Good NONE
11802017-01-25 11:12:32PSTYesJB, NDUSGS72500 Good NONE
11792017-01-25 11:05:07PSTYesJB, NDUSGS72300 Good NONE
11782017-01-04 14:15:49PSTYesJB, NVUSGS23700 Good NONE
11772017-01-04 14:07PSTYesJB, NVUSGS23800 Good NONE
11762017-01-04 13:57:18PSTYesJB, NVUSGS24300 Good NONE
11752017-01-04 13:47:40PSTYesJB, NVUSGS24200 Good NONE
11742017-01-04 13:39:55PSTYesJB, NVUSGS24200 Good NONE
11732017-01-04 13:32:09PSTYesJB, NVUSGS23800 Good NONE
11722016-12-17 13:16:55PSTYesSBWHMHUSGS76000117.340.030.50FairClearNONE
11712016-11-29 10:13:26PSTYesSJB/WJHUSGS19700103.97-0.060.50FairClearNONE
11702016-11-02 11:47:41PDTYesJB, NBUSGS16800 Good NONE
11692016-11-02 11:41:51PDTYesJB, NBUSGS16400 Good NONE
11682016-11-02 11:36:15PDTYesJB, NBUSGS16300 Good NONE
11672016-11-02 11:30:36PDTYesJB, NBUSGS15900 Good NONE
11662016-11-02 11:25:08PDTYesJB, NBUSGS15200 Good NONE
11652016-11-02 11:19:55PDTYesJB, NBUSGS15500 Good NONE
11642016-10-13 11:13:32PDTYesSJB/WJHUSGS14800102.23-0.120.50FairClearNONE
11632016-09-01 11:41:07PDTYesSJB/EMLUSGS21900104.08-0.120.50FairClearNONE
11622016-08-17 11:49:32PDTYesTV/JDUSGS21600 Good NONE
11612016-08-17 11:42PDTYesTV/JDUSGS21400 Good NONE
11602016-08-17 11:35:18PDTYesTV/JDUSGS21300 Good NONE
11592016-08-17 11:28:09PDTYesTV/JDUSGS21500 Good NONE
11582016-08-17 11:20:45PDTYesTV/JDUSGS21200 Good NONE
11572016-08-17 11:14:21PDTYesTV/JDUSGS22000 Good NONE
11562016-07-18 11:45:26PDTYesSJB/EMLUSGS21700104.35-0.160.50FairClearNONE
11552016-05-31 15:45:04PDTYesjd, ndUSGS10300 Good NONE
11542016-05-31 15:37:07PDTYesjd, ndUSGS9830 Good NONE
11532016-05-31 15:28:30PDTYesjd, ndUSGS9350 Good NONE
11522016-05-31 15:19:22PDTYesjd, ndUSGS9150 Good NONE
11512016-05-31 12:10:47PDTYesjd, ndUSGS10600 Good NONE
11502016-05-31 12:03:09PDTYesjd, ndUSGS10800 Good NONE
11492016-05-24 11:48:07PDTYesSJB/EMLUSGS19100104.49-0.120.50FairClearNONE
11422016-03-16 12:07:14PDTYesSJB/EMLUSGS76500117.690.010.80FairDebrisLightNONE
11402016-03-15 10:32:19PDTYesJB, CVUSGS79000 Good NONE
11392016-03-15 10:27:55PDTYesJB, CVUSGS80100 Good NONE
11382016-03-15 10:23:35PDTYesJB, CVUSGS79300 Good NONE
11372016-03-15 10:19:12PDTYesJB, CVUSGS78400 Good NONE
11412016-03-15 10:14:40PDTYesJB, CVUSGS78300 Good NONE
11362016-03-15 10:09:34PDTYesJB, CVUSGS81000 Good NONE
11352016-03-10 10:38:18PSTYesJB, NDUSGS61000 Good NONE
11342016-03-10 10:31:14PSTYesJB, NDUSGS62800 Good NONE
11332016-03-10 10:22:06PSTYesJB, NDUSGS63800 Good NONE
11322016-03-10 10:13:03PSTYesJB, NDUSGS61500 Good NONE
11312016-02-05 11:42:58PSTYeswjh/jlwUSGS25700105.370.020.30GoodClearNONE
11302016-02-03 14:16:12PSTYesJB, FCUSGS33300 Good NONE
11292016-02-03 14:12:20PSTYesJB, FCUSGS33800 Good NONE
11282016-02-03 14:07:51PSTYesJB, FCUSGS33800 Good NONE
11272016-02-03 14:01:48PSTYesJB, FCUSGS33300 Good NONE
11262016-01-25 15:41:20PSTYesJB, RJUSGS46000 Good NONE
11252016-01-25 15:34:10PSTYesJB, RJUSGS46500 Good NONE
11242016-01-25 12:53:38PSTYesJB, RJUSGS49300 Good NONE
11232016-01-25 12:43:48PSTYesJB, RJUSGS47400 Good NONE
11222016-01-25 12:33:35PSTYesJB, RJUSGS47500 Good NONE
11212016-01-25 12:23:57PSTYesJB, RJUSGS45300109.95 Good NONE
11202016-01-11 15:56:57PSTYesJB, WBFUSGS13800 Good NONE
11192016-01-11 15:42:05PSTYesJB, WBFUSGS14400 Good NONE
11182016-01-11 15:29:06PSTYesJB, WBFUSGS14700 Good NONE
11172016-01-11 15:17:28PSTYesJB, WBFUSGS16200 Good NONE
11162016-01-11 15:05:11PSTYesJB, WBFUSGS16000 Good NONE
11152016-01-11 14:52:28PSTYesJB, WBFUSGS17400 Good NONE
11142016-01-11 14:40:32PSTYesJB, WBFUSGS17600 Good NONE
11132016-01-11 14:27:17PSTYesJB, WBFUSGS18100 Good NONE
11122016-01-11 13:32:51PSTYesJB, WBFUSGS19400 Good NONE
11112016-01-11 13:20:45PSTYesJB, WBFUSGS18600 Good NONE
11102016-01-11 13:07:12PSTYesJB, WBFUSGS19600 Good NONE
11092016-01-11 12:27:25PSTYesJB, WBFUSGS20100 Good NONE
11082016-01-11 12:15:17PSTYesJB, WBFUSGS20200 Good NONE
11072016-01-11 12:04:07PSTYesJB, WBFUSGS20400 Good NONE
11062016-01-11 11:53:03PSTYesJB, WBFUSGS20100 Good NONE
11052016-01-11 11:41:36PSTYesJB, WBFUSGS19200 Good NONE
11042016-01-11 11:29:11PSTYesJB, WBFUSGS20700 Good NONE
11032016-01-11 11:00:02PSTYesJB, WBFUSGS20300 Good NONE
11022016-01-11 10:43:07PSTYesJB, WBFUSGS18700 Good NONE
11012016-01-11 10:24:26PSTYesJB, WBFUSGS19700 Good NONE
11002016-01-11 10:09:20PSTYesJB, WBFUSGS18800104.20 Good NONE
10992015-12-21 16:20:02PSTYesET, WBFUSGS15200 Good NONE
10982015-12-21 16:14:01PSTYesET, WBFUSGS14500 Good NONE
10972015-12-21 16:07PSTYesET, WBFUSGS14700 Good NONE
10962015-12-21 16:00:50PSTYesET, WBFUSGS15200 Good NONE
10952015-12-21 15:48:25PSTYesET, WBFUSGS13800 Good NONE
10942015-12-21 15:42:59PSTYesET, WBFUSGS13600 Good NONE
10932015-12-21 15:37:02PSTYesET, WBFUSGS13000 Good NONE
10922015-12-21 15:30:50PSTYesET, WBFUSGS12800 Good NONE
10912015-12-21 15:24:18PSTYesET, WBFUSGS12200 Good NONE
10902015-12-21 15:16:26PSTYesET, WBFUSGS12000 Good NONE
10892015-12-21 15:10:16PSTYesET, WBFUSGS10700 Good NONE
10882015-12-21 15:03:19PSTYesET, WBFUSGS10300 Good NONE
10872015-12-21 14:57:34PSTYesET, WBFUSGS10400 Good NONE
10862015-12-21 14:51:53PSTYesET, WBFUSGS10100 Good NONE
10852015-12-21 14:46:19PSTYesET, WBFUSGS9030 Good NONE
10842015-12-21 14:40:36PSTYesET, WBFUSGS8850 Good NONE
10832015-12-21 14:34:31PSTYesET, WBFUSGS8770 Good NONE
10822015-12-21 14:25:58PSTYesET, WBFUSGS7840 Good NONE
10812015-12-21 14:19:51PSTYesET, WBFUSGS7340 Good NONE
10802015-12-21 14:14:02PSTYesET, WBFUSGS7110 Good NONE
10792015-12-21 14:08:20PSTYesET, WBFUSGS6870 Good NONE
10782015-12-21 14:00:27PSTYesET, WBFUSGS6150 Good NONE
10772015-12-21 13:55:14PSTYesET, WBFUSGS6110 Good NONE
10762015-12-21 13:48:13PSTYesET, WBFUSGS5530 Good NONE
10752015-12-21 13:42:53PSTYesET, WBFUSGS5420 Good NONE
10742015-12-21 13:35:45PSTYesET, WBFUSGS5200 Good NONE
10732015-12-21 13:27:14PSTYesET, WBFUSGS5410 Good NONE
10722015-12-21 13:20:27PSTYesET, WBFUSGS4860 Good NONE
10712015-12-21 13:14:11PSTYesET, WBFUSGS5610 Good NONE
10702015-12-21 13:08:24PSTYesET, WBFUSGS5020 Good NONE
10692015-12-21 13:02:38PSTYesET, WBFUSGS5330 Good NONE
10682015-12-21 12:56:48PSTYesET, WBFUSGS5160 Good NONE
10672015-12-21 12:50:16PSTYesET, WBFUSGS5530 Good NONE
10662015-12-21 12:43:29PSTYesET, WBFUSGS5160 Good NONE
10652015-12-21 12:18:16PSTYesET, WBFUSGS5880 Good NONE
10642015-12-21 12:12:45PSTYesET, WBFUSGS5860 Good NONE
10632015-12-21 12:07:03PSTYesET, WBFUSGS6200 Good NONE
10622015-12-21 12:01:21PSTYesET, WBFUSGS5860 Good NONE
10612015-12-21 11:54:51PSTYesET, WBFUSGS6140 Good NONE
10602015-12-21 11:48:43PSTYesET, WBFUSGS6280 Good NONE
10592015-12-21 11:40:43PSTYesET, WBFUSGS6280 Good NONE
10582015-12-21 11:34:51PSTYesET, WBFUSGS6360 Good NONE
10172015-12-07 10:00:30PSTYesWHSBELUSGS10700101.980.000.30FairClearNONE
10162015-11-16 11:48:26PSTYesND, RJUSGS9280 Fair NONE
10152015-11-16 11:38:30PSTYesND, RJUSGS8590 Fair NONE
10142015-11-16 11:31:36PSTYesND, RJUSGS9150 Fair NONE
10132015-11-16 11:25:08PSTYesND, RJUSGS8190 Fair NONE
10122015-10-09 10:19:18PDTYeswjh/elUSGS13500102.38-0.100.30GoodClearNONE
10112015-09-30 15:08PDTYesjbdUSGS12100 Unspecified NONE
10102015-09-30 14:58PDTYesjbdUSGS12900 Unspecified NONE
10092015-09-30 14:47PDTYesjbdUSGS13200 Unspecified NONE
10082015-09-30 14:37PDTYesjbdUSGS13700 Unspecified NONE
10072015-09-30 14:27PDTYesjbdUSGS13700 Unspecified NONE
10062015-09-30 14:15PDTYesjbdUSGS13900 Unspecified NONE
10052015-09-02 11:03:30PDTYeswjh/JLWUSGS9820103.79 0.00FairClearNONE
10042015-07-14 12:18:44PDTYeswjhUSGS15400102.82-0.080.30GoodClearNONE
10032015-07-02 11:46PDTYesjbdUSGS14100 Unspecified NONE
10022015-07-02 11:37PDTYesjbdUSGS13700 Unspecified NONE
10012015-07-02 11:24PDTYesjbdUSGS13000 Unspecified NONE
10002015-07-02 11:18PDTYesjbdUSGS13600 Unspecified NONE
9992015-07-02 11:01PDTYesjbdUSGS13300 Unspecified NONE
9982015-07-02 10:55PDTYesjbdUSGS13200 Unspecified NONE
9972015-07-02 08:27PDTYesjbdUSGS10300 Unspecified NONE
9962015-07-02 08:19PDTYesjbdUSGS9870 Unspecified NONE
9952015-05-20 10:50:17PDTYesMRH/WJHUSGS14000103.85-0.100.30GoodClearNONE
9942015-04-02 09:45:45PDTYesemlUSGS11100102.23-0.080.30GoodClearNONE
9932015-03-12 13:05PDTYesjbdUSGS11900 Unspecified NONE
9922015-03-12 12:55PDTYesjbdUSGS11300 Unspecified NONE
9912015-03-12 12:43PDTYesjbdUSGS11100 Unspecified NONE
9902015-03-12 12:32PDTYesjbdUSGS10700 Unspecified NONE
9892015-03-12 12:21PDTYesjbdUSGS10100 Unspecified NONE
9882015-03-12 12:08PDTYesjbdUSGS9250 Unspecified NONE
9872015-01-29 10:21:34PSTYeswjh/jlwUSGS2830102.940.120.30PoorClearNONE
9862015-01-29 10:04:09PSTYeswjh/jlwUSGS4280102.760.150.30PoorClearNONE
9852014-12-17 10:28:56PSTYesMRH/WJHUSGS49100111.13-0.020.30GoodClearNONE
9842014-12-15 10:50PSTYesjbdUSGS49300 Unspecified NONE
9832014-12-15 10:30PSTYesjbdUSGS51300 Unspecified NONE
9822014-12-15 10:19PSTYesjbdUSGS52900 Unspecified NONE
9812014-12-15 10:08PSTYesjbdUSGS51600 Unspecified NONE
9802014-12-15 09:55PSTYesjbdUSGS52300 Unspecified NONE
9792014-12-15 09:12PSTYesjbdUSGS50800 Unspecified NONE
9782014-12-15 09:02PSTYesjbdUSGS52400 Unspecified NONE
9772014-12-15 08:53PSTYesjbdUSGS52800 Unspecified NONE
9762014-12-15 08:42PSTYesjbdUSGS53600 Unspecified NONE
9752014-12-05 11:14:46PSTYeswjh/jlwUSGS23800104.480.400.30GoodClearNONE
9742014-10-28 15:11PDTYesjbdUSGS11100 Unspecified NONE
9732014-10-28 14:58PDTYesjbdUSGS11000 Unspecified NONE
9722014-10-28 14:48PDTYesjbdUSGS10900 Unspecified NONE
9712014-10-28 14:27PDTYesjbdUSGS11400 Unspecified NONE
9702014-10-28 14:17PDTYesjbdUSGS11100 Unspecified NONE
9692014-10-28 14:02PDTYesjbdUSGS11300 Unspecified NONE
9682014-10-28 13:52PDTYesjbdUSGS11300 Unspecified NONE
9672014-10-28 13:38PDTYesjbdUSGS10700 Unspecified NONE
9662014-10-28 13:27PDTYesjbdUSGS10500 Unspecified NONE
9652014-10-28 13:12PDTYesjbdUSGS10600 Unspecified NONE
9642014-10-28 12:58PDTYesjbdUSGS10200 Unspecified NONE
9632014-10-28 12:46PDTYesjbdUSGS10100 Unspecified NONE
9622014-10-17 10:31:23PDTYesWJHARDYUSGS8850101.740.040.30FairClearNONE
9612014-09-04 10:11:57PDTYesWJH/MRHUSGS15400102.470.000.30GoodClearNONE
9602014-07-23 10:27:11PDTYesMRH/WJHUSGS16100102.88 0.30GoodDebrisLightNONE
9592014-05-27 12:50:35PDTYesMRH/WJHUSGS13500102.080.180.50Good NONE
9582014-04-02 11:22:26PDTYesmrh/ccaUSGS20900104.540.050.50Good NONE
9572014-02-11 11:41:49PSTYesCA/MH/NUSGS23200104.130.060.50Good NONE
9562013-12-09 11:42:05PSTYesCCA/MRHUSGS1980103.04 Poor NONE
9552013-10-30 13:59:20PDTYesMRH/CCAUSGS753102.420.140.50Poor NONE
9542013-09-18 12:49:05PDTYesEML/MRHUSGS16800102.36 Excellent NONE
9532013-08-02 10:54:29PDTYeswb/el/cUSGS21300102.85 Good NONE
9522013-05-29 11:05:30PDTYesWJHARDYUSGS13500104.39-0.090.40FairClearNONE
9512013-04-11 11:19:44PDTYesemlUSGS18200104.78 Good NONE
9502013-01-30 15:15PSTYeseml/wjhUSGS20800 FairClearNONE
9492012-12-06 11:35:38PSTYeswjhUSGS55600112.640.020.30GoodClearNONE
9482012-10-25 11:14:08PDTYeswjh/orbUSGS14300101.880.000.30GoodClearNONE
9472012-10-25 10:33PDTYeswjh/orbUSGS14800101.96-0.030.20GoodClearNONE
9462012-09-07 14:41PDTYesmh/wrbUSGS18300103.81-0.030.20GoodClearNONE
9452012-07-31 11:00:30PDTYesmh/wrbUSGS24600104.81-0.040.20GoodClearNONE
9442012-06-12 13:36PDTYesjgs/emlUSGS10900103.070.020.20GoodClearNONE
9432012-06-12 11:38PDTYesjgs/emlUSGS12300102.680.190.40GoodClearNONE
9422012-06-12 10:28PDTYesjgs/emlUSGS14500102.520.020.30GoodClearNONE
9412012-04-17 11:08PDTYesMH/WRBUSGS31000106.03-0.040.20GoodClearNONE
9402012-02-14 12:15:30PSTYesEML/PHKUSGS14100104.33-0.080.40GoodClearNONE
9392011-12-08 13:21PSTYesPHK/WRBUSGS12500103.700.130.30GoodClearNONE
9382011-09-29 14:41PDTYesWRB/EMLUSGS23100104.29-0.020.30GoodClearNONE
9372011-08-12 14:06PDTYesWRB/CNSUSGS20000103.48-0.080.40GoodClearNONE
9362011-07-06 12:53:30PDTYesWRB/BMWUSGS31500106.91-0.060.40GoodClearNONE
9352011-05-03 12:06PDTYesWRB/BMWUSGS35600107.38-0.050.40GoodClearNONE
9342011-03-09 13:12:30PSTYesWRB/BMWUSGS40200108.32-0.030.30GoodClearNONE
9332011-02-02 15:35:30PSTYesWRB/WJHUSGS17900104.650.100.30GoodClearNONE
9322010-12-22 11:40:30PSTYesWRB/MJJUSGS76600116.730.000.40GoodClearNONE
9312010-11-16 12:14:30PSTYesBMW/WRBUSGS5430102.780.230.50FairClearNONE
9302010-09-24 11:18:30PDTYesBMW/WRBUSGS18600103.380.110.50GoodClearNONE
9292010-08-05 11:15:30PDTYesWRBUSGS21300103.51-0.110.60GoodClearNONE
9282010-06-24 11:09:30PDTYesJRG/WRBUSGS20100103.79-0.100.40GoodClearNONE
9272010-05-21 11:08PDTYesWRB/MJJUSGS12400103.530.120.40GoodClearNONE
9262010-01-29 13:46:30PSTYesWJH/MJJUSGS60600112.890.010.30GoodClearNONE
9252009-12-16 11:41PSTYesWRB/MJJUSGS15300103.22-0.030.40GoodClearNONE
9242009-10-29 11:54:30PDTYesWRB/MJJUSGS9790101.420.160.50FairClearNONE
9232009-09-11 10:39:30PDTYesWRB/WJHUSGS11000102.670.250.80GoodClearNONE
9222009-08-14 10:47PDTYesWRB/WJHUSGS17500102.790.010.60GoodClearNONE
9212009-06-24 11:16PDTYesWJH/WRBUSGS16600104.35-0.280.70GoodClearNONE
9202009-05-07 11:07PDTYesWJH/WRBUSGS33300106.35-0.040.40GoodClearNONE
9192009-03-12 13:55PDTYesWJH/WRBUSGS23100104.18-0.090.40GoodClearNONE
9182009-01-08 14:25:30PSTYesWRB/MJJUSGS384104.500.020.10PoorClearNONE
9172009-01-08 14:21:30PSTYesWRB/MJJUSGS55.9104.480.030.10PoorClearNONE
9162009-01-08 14:17:54PSTYesWRB/MJJUSGS95.7104.450.010.00PoorClearNONE
9152009-01-08 14:13:54PSTYesWRB/MJJUSGS-217104.440.040.00PoorClearNONE
9142009-01-08 14:07:54PSTYesWRB/MJJUSGS-136104.400.040.00PoorClearNONE
9132009-01-08 14:02:54PSTYesWRB/MJJUSGS-726104.360.020.00PoorClearNONE
9122009-01-08 13:59:30PSTYesWRB/MJJUSGS-753104.340.030.10PoorClearNONE
9112009-01-08 13:54:54PSTYesWRB/MJJUSGS-741104.310.040.00PoorClearNONE
9102009-01-08 13:48:36PSTYesWRB/MJJUSGS-857104.270.030.00PoorClearNONE
9092009-01-08 13:44:30PSTYesWRB/MJJUSGS-1080104.240.020.10PoorClearNONE
9082008-10-31 11:31PDTYeswrb/wjhUSGS10700102.99-0.120.70GoodClearNONE
9072008-08-12 11:21PDTYeswjh/wrbUSGS16500102.59-0.210.80GoodClearNONE
9062008-06-19 11:59PDTYesjrg/wrbUSGS17000103.09-0.220.70GoodClearNONE
9052008-05-05 11:34PDTYeswrb/wjhUSGS14000102.71-0.210.60GoodClearNONE
9042008-03-21 11:05PDTYeswrb/wjhUSGS14500102.46-0.140.50GoodClearNONE
9032008-01-14 12:10PSTYeswrb/wjhUSGS23100104.98-0.040.40GoodClearNONE
9022007-11-16 11:41PSTYeswjh/wrbUSGS7750103.400.050.40FairClearNONE
9012007-10-10 11:13PDTYesWRB/MGUSGS15300102.77-0.100.40GoodClearNONE
9002007-08-21 10:12PDTYesWJH/WRBUSGS18700102.66-0.020.40GoodClearNONE
8992007-07-10 10:21PDTYeswjh/wrbUSGS22800103.94-0.170.50GoodClearNONE
8982007-05-24 11:43PDTYesWRB/MGUSGS6350102.940.090.40GoodClearNONE
8972007-05-18 05:52PDTYes???USGS2310104.89 Unspecified NONE
8962007-05-18 05:45PDTYes???USGS1930104.86 Unspecified NONE
8952007-05-18 05:36PDTYes???USGS1590104.83 Unspecified NONE
8942007-05-18 05:27PDTYes???USGS1250104.79 Unspecified NONE
8932007-05-18 05:19PDTYes???USGS1020104.75 Unspecified NONE
8922007-05-18 05:10PDTYesJRYUSGS768104.70 Unspecified NONE
8912007-05-18 05:01PDTYes???USGS568104.65 Unspecified NONE
8902007-05-18 04:43PDTYes???USGS422104.53 Unspecified NONE
8892007-05-18 04:31PDTYes???USGS588104.45 Unspecified NONE
8882007-05-18 04:19PDTYes???USGS538104.37 Unspecified NONE
8872007-05-18 04:10PDTYes???USGS712104.29 Unspecified NONE
8862007-05-18 04:01PDTYes???USGS849104.22 Unspecified NONE
8852007-05-18 03:52PDTYes???USGS969104.16 Unspecified NONE
8842007-05-18 03:43PDTYes???USGS1080104.09 Unspecified NONE
8832007-05-18 03:35PDTYes???USGS1280104.03 Unspecified NONE
8822007-05-18 03:22PDTYes???USGS1560103.93 Unspecified NONE
8812007-05-18 03:13PDTYes???USGS1880103.86 Unspecified NONE
8802007-05-18 03:05PDTYes???USGS2070103.79 Unspecified NONE
8792007-05-18 02:56PDTYes???USGS2540103.71 Unspecified NONE
8782007-05-18 02:46PDTYes???USGS2700103.62 Unspecified NONE
8772007-05-18 02:37PDTYesJRYUSGS3700103.53 Unspecified NONE
8762007-05-18 02:25PDTYes???USGS4150103.42 Unspecified NONE
8752007-05-18 02:16PDTYesJRYUSGS4900103.31 Unspecified NONE
8742007-05-18 02:06PDTYes???USGS5600103.22 Unspecified NONE
8732007-05-18 01:56PDTYes???USGS6620103.12 Unspecified NONE
8722007-05-17 06:27PDTYes???USGS8960104.68 Unspecified NONE
8712007-05-17 06:17PDTYes???USGS7820104.76 Unspecified NONE
8702007-05-17 06:02PDTYes???USGS5820104.84 Unspecified NONE
8692007-05-17 05:51PDTYes???USGS4530104.88 Unspecified NONE
8682007-05-17 05:42PDTYes???USGS3340104.91 Unspecified NONE
8672007-05-17 05:33PDTYes???USGS2620104.93 Unspecified NONE
8662007-05-17 05:24PDTYes???USGS1800104.92 Unspecified NONE
8652007-05-17 05:14PDTYes???USGS960104.91 Unspecified NONE
8632007-05-17 05:05PDTYes???USGS628104.87 Unspecified NONE
8642007-05-17 04:55PDTYesJRYUSGS156104.82 Unspecified NONE
8622007-05-17 04:46PDTYes???USGS-85.0104.78 Unspecified NONE
8612007-05-17 04:37PDTYes???USGS-262104.73 Unspecified NONE
8602007-05-17 04:28PDTYes???USGS-508104.68 Unspecified NONE
8592007-05-17 04:20PDTYes???USGS-726104.63 Unspecified NONE
8582007-05-17 04:08PDTYes???USGS-885104.56 Unspecified NONE
8572007-05-17 03:59PDTYes???USGS-903104.49 Unspecified NONE
8562007-05-17 03:49PDTYes???USGS-759104.40 Unspecified NONE
8552007-05-17 03:39PDTYes???USGS-554104.32 Unspecified NONE
8542007-05-17 03:29PDTYes???USGS-505104.24 Unspecified NONE
8532007-05-17 03:18PDTYes???USGS-116104.16 Unspecified NONE
8522007-05-17 03:09PDTYes???USGS-106104.08 Unspecified NONE
8512007-05-17 02:50PDTYes???USGS398103.92 Unspecified NONE
8502007-05-17 02:41PDTYes???USGS548103.86 Unspecified NONE
8492007-05-17 02:32PDTYesJRYUSGS880103.80 Unspecified NONE
8482007-05-17 02:20PDTYes???USGS1380103.70 Unspecified NONE
8472007-05-17 02:10PDTYes???USGS1560103.62 Unspecified NONE
8462007-05-17 02:01PDTYes???USGS2120103.55 Unspecified NONE
8452007-04-25 10:32PDTYesWRB/WJHUSGS13000103.180.210.90GoodClearNONE
8442007-03-01 11:08PSTYesWRB/LJFUSGS34900107.11-0.010.40GoodClearNONE
8432007-01-10 10:20PSTYeswrb/ljfUSGS12600104.230.170.60FairClearNONE
8422006-11-21 09:41PSTYeswrb/ljfUSGS13600103.32-0.040.30FairClearNONE
8412006-10-17 15:16PDTYesWRB/JRYUSGS6940103.150.421.30GoodClearNONE
8402006-10-17 13:47PDTYesWRB/JRYUSGS8490102.630.441.30GoodClearNONE
8392006-10-17 12:08PDTYesWRB/JRYUSGS11900102.190.261.60GoodClearNONE
8382006-10-17 11:05PDTYesWRB/JRYUSGS14400102.19-0.161.00GoodClearNONE
8372006-10-17 10:26PDTYesWRB/JRYUSGS14900102.38-0.110.40GoodClearNONE
8362006-10-17 09:30PDTYesWRB/JRYUSGS15000102.59-0.190.70GoodClearNONE
8352006-10-17 08:20PDTYesWRB/JRYUSGS14900102.85-0.281.20GoodClearNONE
8342006-08-15 10:38PDTYesWRB/LJFUSGS17300104.030.070.40GoodClearNONE
8332006-07-05 10:30PDTYesWRB/LJFUSGS20600103.45-0.050.30GoodClearNONE
8322006-05-23 10:51PDTYesWRB/LJFUSGS46700110.15-0.030.40GoodClearNONE
8312006-04-05 10:07PDTYesWRB/MGUSGS90600120.890.000.40GoodClearNONE
8302006-02-15 12:45PSTYesWRB/MGUSGS45700110.17-0.050.50GoodClearNONE
8292006-01-12 10:52PSTYesWRB/LJFUSGS79800117.46-0.010.30GoodClearNONE
8282005-12-27 12:22PSTYesWRB/LJFUSGS87400118.96 GoodClearNONE
8272005-11-22 12:08PSTYesWJH/WRBUSGS8690103.160.030.30GoodClearNONE
8262005-10-12 11:35PDTYesWJH/LJFUSGS15300102.340.100.60GoodClearNONE
8252005-09-14 16:26PDTYesWRB/JRYUSGS14300103.880.090.40GoodClearNONE
8242005-09-14 15:40PDTYesWRB/JRYUSGS14400103.720.160.60GoodClearNONE
8232005-09-14 14:25PDTYesWRB/JRYUSGS15500103.470.311.20GoodClearNONE
8222005-09-14 14:01PDTYesWRB/JRYUSGS16800103.280.090.40GoodClearNONE
8212005-09-14 14:01PDTYesWRB/JRYUSGS17500103.180.050.40GoodClearNONE
8202005-09-14 13:07PDTYesWRB/JRYUSGS18500103.180.010.40GoodClearNONE
8192005-09-14 12:35PDTYesWRB/JRYUSGS19700103.19-0.040.40GoodClearNONE
8182005-09-14 11:26PDTYesWRB/JRYUSGS20300103.39-0.140.40GoodClearNONE
8172005-09-14 11:02PDTYesWRB/JRYUSGS20500103.49-0.130.40GoodClearNONE
8162005-09-14 10:35PDTYesWRB/JRYUSGS20600103.59-0.110.40GoodClearNONE
8152005-09-14 09:51PDTYesWRB/JRYUSGS20300103.78-0.110.40GoodClearNONE
8142005-09-14 09:11PDTYesWRB/JRYUSGS20400103.97-0.200.40GoodClearNONE
8132005-09-14 08:32PDTYesWRB/JRYUSGS20400104.14-0.070.40GoodClearNONE
8122005-09-14 07:39PDTYesWRB/JRYUSGS19900104.33-0.250.70GoodClearNONE
8112005-08-09 10:05PDTYesWJH/BTYUSGS16000104.40-0.100.50GoodClearNONE
8102005-06-28 10:13PDTYesWRB/LJFUSGS17300104.100.080.30GoodClearNONE
8092005-05-17 10:43PDTYesWRB/LJFUSGS39000108.12-0.020.30GoodClearNONE
8082005-04-07 10:05PDTYesJRG/WRBUSGS23700105.02-0.090.60GoodClearNONE
8072005-02-25 09:59PSTYesWRB/LJFUSGS30300106.66-0.040.40GoodClearNONE
8062005-01-14 10:38PSTYeswrb/ljfUSGS36600108.250.000.30GoodClearNONE
8052004-11-23 10:55PSTYesWRB/LJFUSGS9720101.950.300.80GoodClearNONE
8042004-10-12 10:41PDTYesWRB/MGUSGS14400102.14-0.080.30GoodClearNONE
8032004-08-13 09:37PDTYesWJH/WRBUSGS21600104.05-0.230.40GoodClearNONE
8022004-07-01 10:26PDTYesJRG/WRBUSGS21900104.68-0.140.40GoodClearNONE
8012004-06-03 08:37PDTYesWJH/WRBUSGS16400104.67-0.130.40GoodClearNONE
8002004-05-21 10:53PDTYesRAH/WRBUSGS16200103.99-0.150.50GoodClearNONE
7992004-05-06 11:57PDTYesLJF/WJHUSGS17700103.90-0.170.50GoodClearNONE
7982004-04-14 10:25PDTYesBTY/WRBUSGS32000106.38-0.010.30GoodClearNONE
7972004-03-03 09:48PSTYesWRB/LJFUSGS68600115.54-0.031.50FairClearNONE
7962004-01-07 10:21PSTYesSJB/WRBUSGS48200110.11-0.040.80FairClearNONE
7952003-11-18 10:35PSTYesWRB/LJFUSGS11100102.260.140.30GoodClearNONE
7942003-10-01 10:02PDTYesLJF/WRBUSGS9940103.230.461.00GoodClearNONE
7932003-08-18 12:03PDTYesWRB/LJFUSGS16400104.14-0.030.40GoodUnspecifedNONE
7922003-07-07 13:34PDTYesBTY/WRBUSGS19800104.18-0.040.60GoodUnspecifedNONE
7912003-05-15 10:03PDTYesWRB/JBDUSGS36800107.87-0.130.80GoodClearNONE
7902003-05-14 10:28PDTYesWRB/JRYUSGS39600108.37-0.311.20GoodUnspecifedNONE
7892003-05-13 14:00PDTYesWRB/JRYUSGS43300109.270.032.30GoodUnspecifedNONE
7882003-03-26 11:24PSTYesBTY/WRBUSGS18900104.830.130.40GoodUnspecifedNONE
7872003-02-14 09:41PSTYesWRB/LJFUSGS35900107.16-0.030.40GoodUnspecifedNONE
7862002-12-18 13:01PSTYesWRB/LJFUSGS46600109.330.100.40GoodUnspecifedNONE
7852002-11-12 09:54PSTYesWRB/LJFUSGS11100102.670.350.70GoodUnspecifedNONE
7842002-10-07 10:10PDTYesWRB/LJFUSGS13600102.84-0.120.40GoodUnspecifedNONE
7832002-08-27 09:33PDTYesWRB/LJFUSGS12900103.770.040.40GoodUnspecifedNONE
7822002-07-09 10:58PDTYesWRB/LJFUSGS22200103.86-0.160.50GoodUnspecifedNONE
7812002-05-24 09:55PDTYesWRB/LJFUSGS22500104.32-0.070.40GoodUnspecifedNONE
7802002-04-11 09:35PDTYesBTY/WRBUSGS18100103.78-0.070.30GoodUnspecifedNONE
7792002-03-05 09:19PSTYesWRB/LJFUSGS12600104.800.130.40GoodUnspecifedNONE
7782002-01-09 13:39PSTYesBTY/WRBUSGS60200113.710.040.90GoodUnspecifedNONE
7772001-11-19 10:57PSTYesWRB/LJFUSGS10600103.17-0.040.60GoodUnspecifedNONE
7762001-10-19 10:43PDTYesWRB/LJFUSGS10400102.84-0.100.70GoodUnspecifedNONE
7752001-10-09 11:57PDTYesBTY/WRBUSGS4060102.650.190.80FairUnspecifedNONE
7742001-08-20 10:22PDTYesWRB/BTYUSGS16500104.21 GoodUnspecifedNONE
7732001-07-06 13:06PDTYesBTY/WRBUSGS19500103.32 GoodUnspecifedNONE
7722001-05-16 09:20PDTYesBTY/WRBUSGS10800102.37 GoodUnspecifedNONE
7712001-04-03 11:24PDTYesWRB/LJFUSGS10100103.450.451.00GoodUnspecifedNONE
7702001-02-22 09:47PSTYesWRB/LJFUSGS28700105.71 GoodUnspecifedNONE
7692001-01-09 09:50PSTYesWRB/MGUSGS17100103.39 GoodUnspecifedNONE
7682000-11-28 12:00PSTYesWRB/MGUSGS14600102.54-0.400.70GoodUnspecifedNONE
7672000-10-16 10:17PDTYesWRB/AJAUSGS12000103.00 GoodUnspecifedNONE
7662000-09-05 09:46PDTYesWRB/AJAUSGS19800102.87 GoodUnspecifedNONE
7652000-07-25 10:50PDTYesWRB/AJAUSGS23600104.11 GoodUnspecifedNONE
7642000-06-23 10:04PDTYesWRB/AJAUSGS13200104.07 GoodUnspecifedNONE
7632000-05-08 11:06PDTYesWRB/AJAUSGS27700106.43 Unspecified NONE
7622000-05-08 10:45PDTYesWRB/AJAUSGS27300106.43 Unspecified NONE
7612000-03-30 09:36PSTYesWRB/AJAUSGS29600105.59-0.020.70Unspecified NONE
7602000-02-24 10:00PSTYesAJA/WRBUSGS77600116.97-0.020.60GoodUnspecifedNONE
7592000-01-13 12:30PSTYesWRB/AJAUSGS15200103.31 Good NONE
7581999-12-01 10:40PSTYesWRB/AJAUSGS11800103.17 Unspecified NONE
7571999-10-15 11:16PDTYesAJA/LJFUSGS9770103.23-0.111.10GoodClearNONE
7561999-09-14 12:25PDTYesAJC/REWUSGS16700103.50-0.191.70GoodClearNONE
7551999-08-05 10:20PDTYesAJC/REWUSGS21400104.440.141.20GoodClearNONE
7541999-07-09 09:30PDTYesAJC/REWUSGS22900104.38-0.300.90GoodClearNONE
754A1999-06-25 10:45PDTYesAJC/REWUSGS16400 UnspecifiedClearNONE
7531999-05-18 10:50PDTYesWRB/LJFUSGS19000104.82-0.251.50Good NONE
752A1999-03-29 10:30PSTYesMRS/JBDUSGS42800 UnspecifiedClearNONE
7521999-03-29 09:15PSTYesMHW/GDBUSGS43900109.08-0.101.60GoodClearNONE
7511999-02-19 09:50PSTYesAJC/REWUSGS84700118.77-0.021.60Good NONE
7501999-01-08 10:15PSTYesAJA/CRWUSGS16300104.340.121.20Good NONE
7491998-11-17 11:00PSTYesAJC/REWUSGS21800103.940.111.20Good NONE
7481998-10-16 11:20PDTYesAJC/REWUSGS17200102.32-0.011.30Fair NONE
7471998-08-20 10:00PDTYesAJA/CRWUSGS27200105.55-0.191.00Good NONE
7461998-07-22 10:30PDTYesAJA/CRWUSGS25400105.31-0.241.50GoodClearNONE
7451998-05-19 10:40PDTYesAJA/CRWUSGS50200111.250.031.60GoodDebrisLightNONE
7441998-04-10 10:00PDTYesLJF/GBUSGS65300114.97-0.022.00Good NONE
743B1998-03-05 10:01PSTYesMRS/JBDUSGS68800 UnspecifiedClearNONE
743A1998-03-04 16:00PSTYesMRS/JBDUSGS68300 UnspecifiedClearNONE
7431998-02-09 11:05PSTYesAJA/CRWUSGS78600118.94-0.011.00Fair NONE
7421998-01-08 11:00PSTYesCRE/WUSGS18900105.620.741.60Good NONE
7411997-12-04 10:00PSTYesAJA/CRWUSGS21800105.45 Good NONE
7401997-10-16 10:35PDTYesAJC/REWUSGS14800102.89-0.271.40GoodClearNONE
7391997-08-15 11:00PDTYesCRE/WUSGS20100103.74-0.311.00GoodClearNONE
7381997-07-09 09:00PDTYesCRE/WUSGS17900104.88-0.010.80GoodClearNONE
7371997-05-13 12:48PDTYesCRE/WUSGS12100103.20-0.231.00Good NONE
7361997-05-13 09:00PDTYesCRE/WUSGS8160103.290.341.00Good NONE
7351997-04-28 12:30PDTYesCRE/WUSGS15300103.52-0.271.00Good NONE
7341997-01-04 11:40PSTYesAJA/CRWUSGS102000122.250.001.00GoodClearNONE
7331996-12-18 10:10PSTYesAJA/CRWUSGS64800115.890.001.00GoodClearNONE
7321996-12-17 11:00PSTYesAJA/CRWUSGS65000116.620.021.00GoodClearNONE
7311996-12-05 09:30PSTYesAJA/CRWUSGS18300103.960.661.00GoodClearNONE
7301996-10-10 10:45PDTYescre/wUSGS16400103.12-0.25 GoodClearNONE
729A1996-08-05 09:08PDTYesAJC/REWUSGS19200103.980.181.80Fair NONE
7291996-06-25 09:00PDTYesAJA/MHWUSGS20700103.39-0.151.60Good NONE
7281996-05-21 09:35PDTYesCRE/WUSGS72500116.60-0.031.10Good NONE
7271996-04-12 -- ----Yescre/wUSGS35500 GoodClearNONE
726C1996-04-05 08:09PSTYesCRW/MSUSGS41100 Unspecified NONE
723B1996-04-04 15:44PSTYesCRW/MSUSGS41600 Unspecified NONE
726A1996-04-04 13:38PSTYesCRW/MSUSGS42600 Unspecified NONE
7261996-02-20 12:56PSTYesCRE/WUSGS81100118.780.07 GoodClearNONE
725A1996-01-12 10:00PSTYesCRE/WUSGS13.0104.19 Good NONE
7251995-05-23 12:02PDTYesCRE/WUSGS43300108.910.00 GoodClearNONE
7241995-05-23 10:15PDTYesCRE/WUSGS42700108.95-0.061.00GoodClearNONE
7231995-05-15 09:40PDTYesCRE/WUSGS65800115.74-0.051.00GoodClearNONE
93A1993-06-09 13:30PDTYesAJA/MWUSGS47300110.06-0.091.00GoodClearNONE
89B1989-03-17 11:00PSTYesAJA/MHWUSGS41700109.260.011.00Good NONE
89A1989-03-17 10:00PSTYesMHW/AJAUSGS42600109.29-0.051.00Good NONE